Location: Kerguer�zec
(48.4509°N, 4.7600°W)
Time: 06:18:38
(UTC+00:00)

STARLINK-1269 - Pass Details

Date: 09 April 2020
Orbit: 549 x 550 km, 53.0° (Epoch: 29 May)

Event Time Altitude Azimuth Distance (km) Brightness Sun altitude
Rises 19:35:48 0° 291° (WNW) 2,725 10.1 -6.2°
Reaches altitude 10° 19:38:05 10° 296° (WNW) 1,830 8.1 -6.6°
Maximum altitude 19:42:10 53° 14° (NNE) 685 4.2 -7.2°
Drops below altitude 10° 19:46:14 10° 92° (E) 1,827 5.7 -7.8°
Enters shadow 19:46:28 - 92° (E) 1,915 5.8 -7.9°
